| time (UTC) | temp F | wind direction | speed MPH | gust MPH | rain 1hr in | rain 24hr in | rain mn in | humidity % | barometer mb |
| 20260831124929 | 81 | 334 | 1.0 | 2.0 | 0.00 | 0.00 | 0.00 | 97 | 1019.6 |
| 20260831124425 | 81 | 63 | 2.0 | 2.0 | 0.00 | 0.00 | 0.00 | 99 | 1019.6 |
| 20260831123921 | 80 | 59 | 2.0 | 2.0 | 0.00 | 0.00 | 0.00 | 99 | 1018.9 |
| 20260831123419 | 80 | 39 | 1.0 | 2.0 | 0.00 | 0.00 | 0.00 | 99 | 1019.2 |
| 20260831122914 | 80 | 51 | 1.0 | 2.0 | 0.00 | 0.00 | 0.00 | 99 | 1019.2 |
| 20260831122409 | 79 | 99 | 0.0 | 0.0 | 0.00 | 0.00 | 0.00 | 99 | 1019.2 |
| 20260831121904 | 79 | 86 | 1.0 | 1.0 | 0.00 | 0.00 | 0.00 | 99 | 1018.9 |
| 20260831121400 | 78 | 40 | 2.0 | 2.0 | 0.00 | 0.00 | 0.00 | 99 | 1018.9 |
| 20260831120855 | 78 | 82 | 1.0 | 1.0 | 0.00 | 0.00 | 0.00 | 99 | 1018.9 |
| 20260831120350 | 78 | 66 | 1.0 | 1.0 | 0.00 | 0.00 | 0.00 | 99 | 1018.9 |
| 20260831115845 | 78 | 64 | 0.0 | 1.0 | 0.00 | 0.00 | 0.00 | 99 | 1018.9 |
| 20260831115342 | 77 | 59 | 1.0 | 1.0 | 0.00 | 0.00 | 0.00 | 99 | 1018.9 |
| 20260831114841 | 77 | 23 | 0.0 | 0.0 | 0.00 | 0.00 | 0.00 | 99 | 1018.9 |
| 20260831114340 | 77 | 33 | 1.0 | 1.0 | 0.00 | 0.00 | 0.00 | 99 | 1018.9 |
| 20260831113835 | 77 | 79 | 0.0 | 0.0 | 0.00 | 0.00 | 0.00 | 99 | 1018.9 |
| 20260831113335 | 76 | 104 | 0.0 | 0.0 | 0.00 | 0.00 | 0.00 | 99 | 1018.9 |
| 20260831112830 | 76 | 104 | 0.0 | 0.0 | 0.00 | 0.00 | 0.00 | 99 | 1018.9 |
| 20260831112325 | 76 | 105 | 0.0 | 0.0 | 0.00 | 0.00 | 0.00 | 99 | 1018.6 |
| 20260831111820 | 76 | 105 | 0.0 | 0.0 | 0.00 | 0.00 | 0.00 | 99 | 1018.6 |
| 20260831111317 | 76 | 104 | 0.0 | 0.0 | 0.00 | 0.00 | 0.00 | 99 | 1018.6 |
| 20260831110812 | 76 | 104 | 0.0 | 0.0 | 0.00 | 0.00 | 0.00 | 99 | 1018.6 |
| 20260831110307 | 76 | 104 | 0.0 | 0.0 | 0.00 | 0.00 | 0.00 | 99 | 1018.6 |
| 20260831105805 | 76 | 106 | 0.0 | 0.0 | 0.00 | 0.00 | 0.00 | 99 | 1018.6 |
| 20260831105256 | 76 | 105 | 0.0 | 0.0 | 0.00 | 0.00 | 0.00 | 99 | 1018.2 |
| 20260831104755 | 76 | 111 | 0.0 | 0.0 | 0.00 | 0.00 | 0.00 | 99 | 1018.2 |
| 20260831104252 | 76 | 110 | 0.0 | 0.0 | 0.00 | 0.00 | 0.00 | 99 | 1017.9 |
| 20260831103752 | 75 | 122 | 0.0 | 0.0 | 0.00 | 0.00 | 0.00 | 99 | 1017.9 |
| 20260831103248 | 75 | 122 | 0.0 | 0.0 | 0.00 | 0.00 | 0.00 | 99 | 1017.9 |
| 20260831102747 | 76 | 121 | 0.0 | 0.0 | 0.00 | 0.00 | 0.00 | 99 | 1017.9 |
| 20260831102242 | 75 | 131 | 0.0 | 0.0 | 0.00 | 0.00 | 0.00 | 99 | 1018.2 |
| 20260831101738 | 75 | 131 | 0.0 | 0.0 | 0.00 | 0.00 | 0.00 | 99 | 1017.9 |
| 20260831101233 | 75 | 131 | 0.0 | 0.0 | 0.00 | 0.00 | 0.00 | 99 | 1018.2 |
| 20260831100729 | 75 | 131 | 0.0 | 0.0 | 0.00 | 0.00 | 0.00 | 99 | 1017.9 |
| 20260831100219 | 75 | 131 | 0.0 | 0.0 | 0.00 | 0.00 | 0.00 | 99 | 1017.9 |
| 20260831095717 | 75 | 131 | 0.0 | 0.0 | 0.00 | 0.00 | 0.00 | 99 | 1017.5 |
| 20260831095213 | 76 | 131 | 0.0 | 0.0 | 0.00 | 0.00 | 0.00 | 99 | 1017.9 |
| 20260831094707 | 76 | 130 | 0.0 | 0.0 | 0.00 | 0.00 | 0.00 | 99 | 1017.5 |
| 20260831094204 | 75 | 133 | 0.0 | 0.0 | 0.00 | 0.00 | 0.00 | 99 | 1017.5 |
| 20260831093659 | 76 | 133 | 0.0 | 0.0 | 0.00 | 0.00 | 0.00 | 99 | 1017.9 |
| 20260831093154 | 75 | 133 | 0.0 | 0.0 | 0.00 | 0.00 | 0.00 | 99 | 1017.9 |
| 20260831092651 | 76 | 133 | 0.0 | 0.0 | 0.00 | 0.00 | 0.00 | 99 | 1017.9 |
| 20260831092147 | 76 | 133 | 0.0 | 0.0 | 0.00 | 0.00 | 0.00 | 99 | 1017.9 |
| 20260831091646 | 76 | 133 | 0.0 | 0.0 | 0.00 | 0.00 | 0.00 | 99 | 1017.9 |
| 20260831091142 | 76 | 132 | 0.0 | 0.0 | 0.00 | 0.00 | 0.00 | 99 | 1017.9 |
| 20260831090637 | 76 | 132 | 0.0 | 0.0 | 0.00 | 0.00 | 0.00 | 99 | 1017.9 |
| 20260831090133 | 76 | 132 | 0.0 | 0.0 | 0.00 | 0.00 | 0.00 | 99 | 1017.9 |
| 20260831085627 | 76 | 132 | 0.0 | 0.0 | 0.00 | 0.00 | 0.00 | 99 | 1017.5 |
| 20260831085123 | 76 | 142 | 0.0 | 0.0 | 0.00 | 0.00 | 0.00 | 99 | 1017.5 |
| 20260831084619 | 76 | 140 | 0.0 | 0.0 | 0.00 | 0.00 | 0.00 | 99 | 1017.5 |
| 20260831084115 | 76 | 203 | 0.0 | 0.0 | 0.00 | 0.00 | 0.00 | 99 | 1017.9 |
| 20260831083611 | 76 | 166 | 0.0 | 0.0 | 0.00 | 0.00 | 0.00 | 99 | 1017.9 |
| 20260831083106 | 76 | 166 | 0.0 | 0.0 | 0.00 | 0.00 | 0.00 | 99 | 1017.9 |
| 20260831082604 | 76 | 164 | 0.0 | 0.0 | 0.00 | 0.00 | 0.00 | 99 | 1018.2 |
| 20260831082100 | 76 | 165 | 0.0 | 0.0 | 0.00 | 0.00 | 0.00 | 99 | 1017.9 |
| 20260831081556 | 75 | 166 | 0.0 | 0.0 | 0.00 | 0.00 | 0.00 | 99 | 1017.9 |
| 20260831081051 | 75 | 166 | 0.0 | 0.0 | 0.00 | 0.00 | 0.00 | 99 | 1017.9 |
| 20260831080551 | 76 | 167 | 0.0 | 0.0 | 0.00 | 0.00 | 0.00 | 99 | 1018.2 |
| 20260831080047 | 76 | 166 | 0.0 | 0.0 | 0.00 | 0.00 | 0.00 | 99 | 1018.2 |
| 20260831075542 | 76 | 166 | 0.0 | 0.0 | 0.00 | 0.00 | 0.00 | 99 | 1018.2 |
| 20260831075038 | 76 | 166 | 0.0 | 0.0 | 0.00 | 0.00 | 0.00 | 99 | 1017.9 |
| 20260831074537 | 76 | 166 | 0.0 | 0.0 | 0.00 | 0.00 | 0.00 | 99 | 1018.2 |
| 20260831074037 | 76 | 166 | 0.0 | 0.0 | 0.00 | 0.00 | 0.00 | 99 | 1018.2 |
| 20260831073532 | 76 | 166 | 0.0 | 0.0 | 0.00 | 0.00 | 0.00 | 99 | 1017.9 |
| 20260831073031 | 76 | 166 | 0.0 | 0.0 | 0.00 | 0.00 | 0.00 | 99 | 1018.2 |
| 20260831072527 | 76 | 166 | 0.0 | 0.0 | 0.00 | 0.00 | 0.00 | 99 | 1018.2 |
| 20260831072024 | 76 | 165 | 0.0 | 0.0 | 0.00 | 0.00 | 0.00 | 99 | 1018.6 |
| 20260831071522 | 76 | 165 | 0.0 | 0.0 | 0.00 | 0.00 | 0.00 | 99 | 1018.2 |
| 20260831071018 | 76 | 165 | 0.0 | 0.0 | 0.00 | 0.00 | 0.00 | 99 | 1018.6 |
| 20260831070516 | 76 | 165 | 0.0 | 0.0 | 0.00 | 0.00 | 0.00 | 99 | 1018.2 |
| 20260831070012 | 76 | 165 | 0.0 | 0.0 | 0.00 | 0.00 | 0.00 | 99 | 1018.6 |
| 20260831065509 | 76 | 165 | 0.0 | 0.0 | 0.00 | 0.00 | 0.00 | 99 | 1018.6 |
| 20260831065004 | 76 | 165 | 0.0 | 0.0 | 0.00 | 0.00 | 0.00 | 99 | 1018.6 |
| 20260831064459 | 76 | 165 | 0.0 | 0.0 | 0.00 | 0.00 | 0.00 | 99 | 1018.6 |
| 20260831063954 | 76 | 164 | 0.0 | 0.0 | 0.00 | 0.00 | 0.00 | 99 | 1018.2 |
| 20260831063450 | 76 | 178 | 0.0 | 0.0 | 0.00 | 0.00 | 0.00 | 99 | 1018.6 |
| 20260831062949 | 76 | 182 | 0.0 | 0.0 | 0.00 | 0.00 | 0.00 | 99 | 1018.6 |
| 20260831062445 | 76 | 178 | 0.0 | 0.0 | 0.00 | 0.00 | 0.00 | 99 | 1018.2 |
| 20260831061944 | 76 | 105 | 0.0 | 0.0 | 0.00 | 0.00 | 0.00 | 99 | 1018.6 |
| 20260831061442 | 76 | 105 | 0.0 | 0.0 | 0.00 | 0.00 | 0.00 | 99 | 1018.9 |
| 20260831060939 | 76 | 105 | 0.0 | 0.0 | 0.00 | 0.00 | 0.00 | 99 | 1018.6 |
| 20260831060433 | 76 | 105 | 0.0 | 0.0 | 0.00 | 0.00 | 0.00 | 99 | 1018.9 |
| 20260831055933 | 76 | 105 | 0.0 | 0.0 | 0.00 | 0.00 | 0.00 | 99 | 1018.9 |
| 20260831055428 | 76 | 105 | 0.0 | 0.0 | 0.00 | 0.00 | 0.00 | 99 | 1018.9 |
| 20260831054923 | 76 | 105 | 0.0 | 0.0 | 0.00 | 0.00 | 0.00 | 99 | 1018.9 |
| 20260831054418 | 76 | 105 | 0.0 | 0.0 | 0.00 | 0.00 | 0.00 | 99 | 1018.9 |
| 20260831053918 | 76 | 105 | 0.0 | 0.0 | 0.00 | 0.00 | 0.00 | 99 | 1018.9 |
| 20260831053415 | 76 | 105 | 0.0 | 0.0 | 0.00 | 0.00 | 0.00 | 99 | 1018.9 |
| 20260831052911 | 77 | 105 | 0.0 | 0.0 | 0.00 | 0.00 | 0.00 | 99 | 1018.9 |
| 20260831052410 | 77 | 105 | 0.0 | 0.0 | 0.00 | 0.00 | 0.00 | 99 | 1018.9 |
| 20260831051908 | 77 | 105 | 0.0 | 0.0 | 0.00 | 0.00 | 0.00 | 99 | 1018.9 |
| 20260831051406 | 77 | 104 | 0.0 | 0.0 | 0.00 | 0.00 | 0.00 | 99 | 1018.9 |
| 20260831050901 | 77 | 105 | 0.0 | 0.0 | 0.00 | 0.00 | 0.00 | 99 | 1018.9 |
| 20260831050356 | 77 | 104 | 0.0 | 0.0 | 0.00 | 0.00 | 0.00 | 99 | 1018.9 |
| 20260831045855 | 77 | 104 | 0.0 | 0.0 | 0.00 | 0.00 | 0.00 | 99 | 1018.9 |
| 20260831045349 | 77 | 104 | 0.0 | 0.0 | 0.00 | 0.00 | 0.00 | 99 | 1018.9 |
| 20260831044844 | 77 | 104 | 0.0 | 0.0 | 0.00 | 0.00 | 0.00 | 99 | 1018.9 |
| 20260831044339 | 77 | 104 | 0.0 | 0.0 | 0.00 | 0.00 | 0.00 | 99 | 1018.9 |
| 20260831043836 | 77 | 107 | 0.0 | 0.0 | 0.00 | 0.00 | 0.00 | 99 | 1018.9 |
| 20260831043335 | 77 | 121 | 0.0 | 0.0 | 0.00 | 0.00 | 0.00 | 99 | 1018.9 |
| 20260831042830 | 78 | 63 | 0.0 | 0.0 | 0.00 | 0.00 | 0.00 | 99 | 1019.2 |
| 20260831042329 | 78 | 88 | 0.0 | 0.0 | 0.00 | 0.00 | 0.00 | 99 | 1018.9 |
| 20260831041825 | 78 | 98 | 0.0 | 0.0 | 0.00 | 0.00 | 0.00 | 99 | 1018.9 |
| 20260831041324 | 78 | 89 | 0.0 | 0.0 | 0.00 | 0.00 | 0.00 | 99 | 1018.9 |
| 20260831040819 | 78 | 108 | 0.0 | 0.0 | 0.00 | 0.00 | 0.00 | 99 | 1018.9 |
| 20260831040318 | 78 | 132 | 0.0 | 0.0 | 0.00 | 0.00 | 0.00 | 99 | 1018.9 |
| 20260831035817 | 78 | 84 | 1.0 | 1.0 | 0.00 | 0.10 | 0.10 | 99 | 1018.9 |
| 20260831035315 | 78 | 90 | 0.0 | 0.0 | 0.00 | 0.10 | 0.10 | 99 | 1018.9 |
| 20260831034810 | 77 | 62 | 0.0 | 0.0 | 0.00 | 0.10 | 0.10 | 99 | 1019.2 |
| 20260831034306 | 77 | 121 | 0.0 | 0.0 | 0.00 | 0.10 | 0.10 | 99 | 1019.2 |
| 20260831033801 | 77 | 122 | 0.0 | 0.0 | 0.00 | 0.10 | 0.10 | 99 | 1019.2 |
| 20260831033301 | 77 | 122 | 0.0 | 0.0 | 0.00 | 0.10 | 0.10 | 99 | 1019.6 |
| 20260831032756 | 77 | 123 | 0.0 | 0.0 | 0.00 | 0.10 | 0.10 | 99 | 1019.2 |
| 20260831032251 | 77 | 123 | 0.0 | 0.0 | 0.00 | 0.10 | 0.10 | 99 | 1019.2 |
| 20260831031746 | 77 | 122 | 0.0 | 0.0 | 0.00 | 0.10 | 0.10 | 99 | 1019.2 |
| 20260831031245 | 78 | 122 | 0.0 | 0.0 | 0.00 | 0.10 | 0.10 | 99 | 1019.2 |
| 20260831030740 | 78 | 122 | 0.0 | 0.0 | 0.00 | 0.10 | 0.10 | 99 | 1019.2 |
| 20260831030238 | 78 | 122 | 0.0 | 0.0 | 0.00 | 0.10 | 0.10 | 99 | 1019.2 |
| 20260831025737 | 78 | 122 | 0.0 | 0.0 | 0.00 | 0.10 | 0.10 | 99 | 1019.6 |
| 20260831025233 | 78 | 122 | 0.0 | 0.0 | 0.00 | 0.10 | 0.10 | 99 | 1019.2 |
| 20260831024729 | 78 | 123 | 0.0 | 0.0 | 0.00 | 0.10 | 0.10 | 99 | 1019.2 |
| 20260831024227 | 78 | 123 | 0.0 | 0.0 | 0.00 | 0.10 | 0.10 | 99 | 1019.2 |
| 20260831023726 | 78 | 123 | 0.0 | 0.0 | 0.00 | 0.10 | 0.10 | 99 | 1019.2 |
| 20260831023225 | 79 | 123 | 0.0 | 0.0 | 0.00 | 0.10 | 0.10 | 99 | 1019.6 |
| 20260831022720 | 79 | 123 | 0.0 | 0.0 | 0.00 | 0.10 | 0.10 | 99 | 1019.2 |
| 20260831022214 | 79 | 112 | 0.0 | 0.0 | 0.00 | 0.10 | 0.10 | 99 | 1018.9 |
| 20260831021714 | 79 | 101 | 0.0 | 0.0 | 0.00 | 0.10 | 0.10 | 99 | 1019.2 |
| 20260831021209 | 79 | 120 | 0.0 | 0.0 | 0.00 | 0.10 | 0.10 | 99 | 1019.2 |
| 20260831020705 | 79 | 100 | 0.0 | 0.0 | 0.00 | 0.10 | 0.10 | 99 | 1019.2 |
| 20260831020205 | 79 | 126 | 0.0 | 0.0 | 0.00 | 0.10 | 0.10 | 99 | 1019.2 |
| 20260831015700 | 79 | 114 | 0.0 | 0.0 | 0.00 | 0.10 | 0.10 | 99 | 1019.6 |
| 20260831015155 | 79 | 88 | 0.0 | 1.0 | 0.00 | 0.10 | 0.10 | 99 | 1019.2 |
| 20260831014650 | 79 | 41 | 3.0 | 3.0 | 0.00 | 0.10 | 0.10 | 99 | 1018.9 |
| 20260831014145 | 79 | 67 | 2.0 | 2.0 | 0.00 | 0.10 | 0.10 | 99 | 1019.2 |
| 20260831013641 | 79 | 52 | 2.0 | 2.0 | 0.00 | 0.10 | 0.10 | 99 | 1019.2 |
| 20260831013140 | 79 | 67 | 0.0 | 1.0 | 0.00 | 0.10 | 0.10 | 99 | 1019.2 |
| 20260831012635 | 80 | 50 | 2.0 | 2.0 | 0.00 | 0.10 | 0.10 | 99 | 1019.2 |
| 20260831012125 | 80 | 69 | 0.0 | 0.0 | 0.00 | 0.10 | 0.10 | 99 | 1019.6 |
| 20260831011624 | 80 | 73 | 0.0 | 0.0 | 0.00 | 0.10 | 0.10 | 99 | 1019.6 |
| 20260831011120 | 80 | 70 | 0.0 | 0.0 | 0.00 | 0.10 | 0.10 | 99 | 1019.2 |
| 20260831010616 | 80 | 99 | 0.0 | 0.0 | 0.00 | 0.10 | 0.10 | 99 | 1019.6 |
| 20260831010111 | 79 | 120 | 0.0 | 0.0 | 0.00 | 0.10 | 0.10 | 99 | 1019.2 |
| 20260831005611 | 80 | 110 | 0.0 | 0.0 | 0.00 | 0.10 | 0.10 | 99 | 1019.6 |
| 20260831005106 | 80 | 100 | 0.0 | 0.0 | 0.00 | 0.10 | 0.10 | 99 | 1019.2 |
| 20260831004602 | 79 | 63 | 0.0 | 0.0 | 0.00 | 0.10 | 0.10 | 99 | 1019.2 |
| 20260831004057 | 80 | 105 | 0.0 | 0.0 | 0.00 | 0.10 | 0.10 | 99 | 1019.2 |
| 20260831003554 | 80 | 98 | 0.0 | 0.0 | 0.00 | 0.10 | 0.10 | 99 | 1019.2 |
| 20260831003049 | 80 | 140 | 0.0 | 0.0 | 0.00 | 0.10 | 0.10 | 99 | 1019.2 |
| 20260831002548 | 80 | 140 | 0.0 | 0.0 | 0.00 | 0.10 | 0.10 | 99 | 1019.2 |
| 20260831002043 | 79 | 133 | 0.0 | 0.0 | 0.00 | 0.10 | 0.10 | 99 | 1019.2 |
| 20260831001539 | 79 | 95 | 0.0 | 0.0 | 0.00 | 0.10 | 0.10 | 99 | 1018.9 |
| 20260831001035 | 79 | 94 | 0.0 | 0.0 | 0.00 | 0.10 | 0.10 | 99 | 1019.2 |
| 20260831000531 | 80 | 94 | 0.0 | 0.0 | 0.00 | 0.10 | 0.10 | 99 | 1019.2 |
| 20260831000030 | 80 | 94 | 0.0 | 0.0 | 0.00 | 0.10 | 0.10 | 99 | 1018.9 |
| 20260830235524 | 80 | 98 | 0.0 | 0.0 | 0.00 | 0.10 | 0.10 | 99 | 1018.9 |
| 20260830235019 | 80 | 98 | 0.0 | 0.0 | 0.00 | 0.10 | 0.10 | 99 | 1018.9 |
| 20260830234514 | 80 | 98 | 0.0 | 0.0 | 0.00 | 0.10 | 0.10 | 99 | 1018.9 |
| 20260830234009 | 80 | 98 | 0.0 | 0.0 | 0.00 | 0.10 | 0.10 | 99 | 1018.9 |
| 20260830233504 | 80 | 97 | 0.0 | 0.0 | 0.00 | 0.10 | 0.10 | 99 | 1018.9 |
| 20260830233000 | 80 | 97 | 0.0 | 0.0 | 0.00 | 0.10 | 0.10 | 98 | 1018.9 |
| 20260830232456 | 80 | 98 | 0.0 | 1.0 | 0.00 | 0.10 | 0.10 | 98 | 1018.9 |
| 20260830231952 | 80 | 105 | 1.0 | 1.0 | 0.00 | 0.10 | 0.10 | 97 | 1018.9 |
| 20260830231448 | 81 | 100 | 0.0 | 0.0 | 0.00 | 0.10 | 0.10 | 98 | 1018.9 |
| 20260830230946 | 81 | 55 | 0.0 | 0.0 | 0.00 | 0.10 | 0.10 | 98 | 1018.9 |
| 20260830230442 | 81 | 54 | 0.0 | 0.0 | 0.00 | 0.10 | 0.10 | 97 | 1018.9 |
| 20260830225941 | 81 | 52 | 2.0 | 2.0 | 0.00 | 0.10 | 0.10 | 96 | 1018.9 |
| 20260830225438 | 81 | 115 | 1.0 | 1.0 | 0.00 | 0.10 | 0.10 | 96 | 1018.9 |
| 20260830224937 | 81 | 60 | 1.0 | 2.0 | 0.00 | 0.10 | 0.10 | 96 | 1018.9 |
| 20260830224435 | 81 | 45 | 2.0 | 2.0 | 0.00 | 0.10 | 0.10 | 97 | 1018.6 |
| 20260830223932 | 81 | 47 | 5.0 | 5.0 | 0.00 | 0.10 | 0.10 | 96 | 1018.9 |
| 20260830223429 | 81 | 84 | 1.0 | 1.0 | 0.00 | 0.10 | 0.10 | 96 | 1018.6 |
| 20260830222928 | 81 | 77 | 3.0 | 3.0 | 0.00 | 0.10 | 0.10 | 97 | 1018.9 |
| 20260830222423 | 82 | 80 | 1.0 | 2.0 | 0.00 | 0.10 | 0.10 | 97 | 1018.9 |
| 20260830221919 | 81 | 119 | 1.0 | 1.0 | 0.00 | 0.10 | 0.10 | 97 | 1018.9 |
| 20260830221415 | 81 | 125 | 1.0 | 1.0 | 0.00 | 0.10 | 0.10 | 96 | 1018.9 |
| 20260830220911 | 82 | 71 | 2.0 | 2.0 | 0.00 | 0.10 | 0.10 | 97 | 1018.6 |
| 20260830220410 | 81 | 53 | 3.0 | 3.0 | 0.00 | 0.10 | 0.10 | 97 | 1018.6 |
| 20260830215908 | 81 | 176 | 1.0 | 1.0 | 0.00 | 0.10 | 0.10 | 98 | 1018.2 |
| 20260830215403 | 81 | 148 | 0.0 | 0.0 | 0.00 | 0.10 | 0.10 | 99 | 1018.9 |
| 20260830214857 | 81 | 155 | 0.0 | 0.0 | 0.00 | 0.10 | 0.10 | 99 | 1018.2 |
| 20260830214352 | 81 | 130 | 0.0 | 1.0 | 0.00 | 0.10 | 0.10 | 99 | 1018.2 |
| 20260830213847 | 81 | 115 | 0.0 | 1.0 | 0.00 | 0.10 | 0.10 | 99 | 1018.2 |
| 20260830213342 | 81 | 54 | 1.0 | 1.0 | 0.00 | 0.10 | 0.10 | 99 | 1018.2 |
| 20260830212838 | 80 | 81 | 1.0 | 1.0 | 0.00 | 0.10 | 0.10 | 99 | 1018.2 |
| 20260830212334 | 80 | 40 | 4.0 | 6.0 | 0.00 | 0.10 | 0.10 | 99 | 1018.2 |
| 20260830211833 | 80 | 96 | 1.0 | 1.0 | 0.00 | 0.10 | 0.10 | 99 | 1018.2 |
| 20260830211327 | 79 | 78 | 1.0 | 1.0 | 0.00 | 0.10 | 0.10 | 99 | 1018.2 |
| 20260830210823 | 79 | 41 | 2.0 | 3.0 | 0.00 | 0.10 | 0.10 | 99 | 1017.9 |
| 20260830210322 | 79 | 23 | 2.0 | 2.0 | 0.00 | 0.10 | 0.10 | 99 | 1018.2 |
| 20260830205820 | 78 | 60 | 3.0 | 3.0 | 0.00 | 0.10 | 0.10 | 99 | 1018.2 |
| 20260830205314 | 78 | 51 | 2.0 | 2.0 | 0.00 | 0.10 | 0.10 | 99 | 1018.6 |
| 20260830204809 | 78 | 85 | 1.0 | 1.0 | 0.00 | 0.10 | 0.10 | 99 | 1018.6 |
| 20260830204308 | 78 | 141 | 0.0 | 1.0 | 0.07 | 0.10 | 0.10 | 99 | 1018.6 |
| 20260830203804 | 78 | 104 | 2.0 | 2.0 | 0.07 | 0.10 | 0.10 | 99 | 1018.9 |
| 20260830203300 | 78 | 59 | 1.0 | 2.0 | 0.00 | 0.09 | 0.09 | 99 | 1018.9 |
| 20260830202759 | 78 | 165 | 1.0 | 1.0 | 0.00 | 0.09 | 0.09 | 99 | 1018.6 |
| 20260830202254 | 78 | 119 | 0.0 | 1.0 | 0.00 | 0.09 | 0.09 | 99 | 1018.6 |
| 20260830201749 | 78 | 65 | 1.0 | 1.0 | 0.05 | 0.09 | 0.09 | 99 | 1018.9 |
| 20260830201243 | 78 | 102 | 1.0 | 1.0 | 0.05 | 0.09 | 0.09 | 99 | 1018.6 |
| 20260830200739 | 78 | 77 | 3.0 | 3.0 | 0.07 | 0.08 | 0.08 | 99 | 1018.9 |
| 20260830200238 | 78 | 149 | 0.0 | 1.0 | 0.07 | 0.08 | 0.08 | 99 | 1018.9 |
| 20260830195734 | 78 | 136 | 1.0 | 1.0 | 0.07 | 0.07 | 0.07 | 99 | 1018.9 |
| 20260830195232 | 77 | 95 | 2.0 | 2.0 | 0.07 | 0.07 | 0.07 | 99 | 1018.6 |
| 20260830194731 | 77 | 176 | 1.0 | 1.0 | 0.05 | 0.06 | 0.06 | 99 | 1018.6 |
| 20260830194226 | 77 | 43 | 2.0 | 2.0 | 0.05 | 0.06 | 0.06 | 99 | 1018.9 |
| 20260830193726 | 77 | 121 | 1.0 | 1.0 | 0.07 | 0.05 | 0.05 | 99 | 1018.9 |
| 20260830193220 | 77 | 83 | 1.0 | 2.0 | 0.12 | 0.05 | 0.05 | 99 | 1018.9 |
| 20260830192716 | 77 | 97 | 1.0 | 3.0 | 0.12 | 0.04 | 0.04 | 99 | 1019.2 |
| 20260830192211 | 77 | 263 | 1.0 | 1.0 | 0.12 | 0.03 | 0.03 | 98 | 1019.2 |
| 20260830191707 | 77 | 99 | 2.0 | 3.0 | 0.12 | 0.02 | 0.02 | 98 | 1019.2 |
| 20260830191201 | 77 | 141 | 5.0 | 8.0 | 0.07 | 0.01 | 0.01 | 96 | 1018.9 |
| 20260830190657 | 78 | 48 | 2.0 | 2.0 | 0.00 | 0.00 | 0.00 | 94 | 1019.2 |
| 20260830190152 | 79 | 117 | 1.0 | 2.0 | 0.00 | 0.00 | 0.00 | 95 | 1018.9 |
| 20260830185650 | 79 | 160 | 3.0 | 3.0 | 0.00 | 0.00 | 0.00 | 93 | 1019.2 |
| 20260830185146 | 79 | 178 | 3.0 | 5.0 | 0.00 | 0.00 | 0.00 | 94 | 1018.9 |
| 20260830184645 | 80 | 53 | 6.0 | 8.0 | 0.00 | 0.00 | 0.00 | 91 | 1019.2 |
| 20260830184139 | 81 | 117 | 4.0 | 6.0 | 0.00 | 0.00 | 0.00 | 89 | 1019.6 |
| 20260830183639 | 82 | 280 | 6.0 | 9.0 | 0.00 | 0.00 | 0.00 | 87 | 1019.9 |
| 20260830183135 | 83 | 51 | 4.0 | 5.0 | 0.00 | 0.00 | 0.00 | 86 | 1019.6 |
| 20260830182636 | 84 | 78 | 10.0 | 14.0 | 0.00 | 0.00 | 0.00 | 85 | 1019.6 |
| 20260830182132 | 88 | 125 | 3.0 | 5.0 | 0.00 | 0.00 | 0.00 | 80 | 1019.2 |
| 20260830181628 | 88 | 41 | 4.0 | 6.0 | 0.00 | 0.00 | 0.00 | 80 | 1018.9 |
| 20260830181127 | 87 | 46 | 3.0 | 5.0 | 0.00 | 0.00 | 0.00 | 79 | 1019.2 |
| 20260830180626 | 87 | 62 | 5.0 | 7.0 | 0.00 | 0.00 | 0.00 | 78 | 1018.9 |
| 20260830180121 | 88 | 43 | 6.0 | 8.0 | 0.00 | 0.00 | 0.00 | 77 | 1018.9 |
| 20260830175619 | 89 | 25 | 5.0 | 5.0 | 0.00 | 0.00 | 0.00 | 78 | 1019.2 |
| 20260830175115 | 88 | 20 | 3.0 | 3.0 | 0.00 | 0.00 | 0.00 | 78 | 1018.9 |
| 20260830174610 | 88 | 57 | 5.0 | 6.0 | 0.00 | 0.00 | 0.00 | 79 | 1019.2 |
| 20260830174106 | 89 | 53 | 6.0 | 8.0 | 0.00 | 0.00 | 0.00 | 77 | 1019.6 |
| 20260830173601 | 89 | 9 | 3.0 | 5.0 | 0.00 | 0.00 | 0.00 | 76 | 1019.6 |
| 20260830173056 | 88 | 24 | 5.0 | 7.0 | 0.00 | 0.00 | 0.00 | 79 | 1019.9 |
| 20260830172553 | 88 | 31 | 4.0 | 5.0 | 0.00 | 0.00 | 0.00 | 78 | 1019.6 |
| 20260830172048 | 89 | 353 | 7.0 | 8.0 | 0.00 | 0.00 | 0.00 | 76 | 1019.6 |
| 20260830171544 | 88 | 49 | 2.0 | 2.0 | 0.00 | 0.00 | 0.00 | 79 | 1019.6 |
| 20260830171039 | 89 | 25 | 5.0 | 6.0 | 0.00 | 0.00 | 0.00 | 79 | 1019.6 |
| 20260830170538 | 89 | 50 | 6.0 | 8.0 | 0.00 | 0.00 | 0.00 | 77 | 1019.9 |
| 20260830170037 | 88 | 62 | 6.0 | 7.0 | 0.00 | 0.00 | 0.00 | 74 | 1019.9 |
| 20260830165533 | 88 | 55 | 4.0 | 7.0 | 0.00 | 0.00 | 0.00 | 77 | 1019.9 |
| 20260830165029 | 89 | 32 | 5.0 | 6.0 | 0.00 | 0.00 | 0.00 | 78 | 1020.3 |
| 20260830164524 | 87 | 20 | 3.0 | 3.0 | 0.00 | 0.00 | 0.00 | 78 | 1019.9 |
| 20260830164020 | 88 | 45 | 4.0 | 5.0 | 0.00 | 0.00 | 0.00 | 81 | 1020.3 |
| 20260830163517 | 88 | 39 | 3.0 | 3.0 | 0.00 | 0.00 | 0.00 | 82 | 1020.6 |
| 20260830163016 | 88 | 42 | 2.0 | 3.0 | 0.00 | 0.00 | 0.00 | 80 | 1020.6 |
| 20260830162512 | 88 | 48 | 4.0 | 6.0 | 0.00 | 0.00 | 0.00 | 78 | 1020.3 |
| 20260830162007 | 87 | 191 | 0.0 | 0.0 | 0.00 | 0.00 | 0.00 | 80 | 1020.3 |
| 20260830161501 | 86 | 344 | 1.0 | 2.0 | 0.00 | 0.00 | 0.00 | 84 | 1020.3 |
| 20260830160956 | 86 | 15 | 4.0 | 5.0 | 0.00 | 0.00 | 0.00 | 84 | 1020.3 |
| 20260830160453 | 86 | 11 | 1.0 | 2.0 | 0.00 | 0.00 | 0.00 | 83 | 1020.3 |
| 20260830155947 | 86 | 25 | 3.0 | 5.0 | 0.00 | 0.00 | 0.00 | 84 | 1020.3 |
| 20260830155443 | 86 | 18 | 2.0 | 3.0 | 0.00 | 0.00 | 0.00 | 84 | 1020.3 |
| 20260830154938 | 86 | 171 | 0.0 | 1.0 | 0.00 | 0.00 | 0.00 | 85 | 1020.6 |
| 20260830154434 | 85 | 64 | 1.0 | 1.0 | 0.00 | 0.00 | 0.00 | 88 | 1020.6 |
| 20260830153930 | 85 | 22 | 3.0 | 5.0 | 0.00 | 0.00 | 0.00 | 88 | 1020.6 |
| 20260830153426 | 85 | 355 | 3.0 | 3.0 | 0.00 | 0.00 | 0.00 | 86 | 1020.6 |
| 20260830152925 | 85 | 36 | 3.0 | 3.0 | 0.00 | 0.00 | 0.00 | 87 | 1020.9 |
| 20260830152420 | 85 | 47 | 6.0 | 8.0 | 0.00 | 0.00 | 0.00 | 87 | 1020.6 |
| 20260830151914 | 84 | 80 | 2.0 | 2.0 | 0.00 | 0.00 | 0.00 | 89 | 1020.9 |
| 20260830151414 | 85 | 57 | 2.0 | 2.0 | 0.00 | 0.00 | 0.00 | 87 | 1020.6 |
| 20260830150908 | 84 | 56 | 2.0 | 2.0 | 0.00 | 0.00 | 0.00 | 88 | 1020.6 |
| 20260830150409 | 86 | 54 | 2.0 | 2.0 | 0.00 | 0.00 | 0.00 | 87 | 1020.9 |
| 20260830145902 | 84 | 61 | 1.0 | 2.0 | 0.00 | 0.00 | 0.00 | 88 | 1020.6 |
| 20260830145357 | 85 | 71 | 2.0 | 2.0 | 0.00 | 0.00 | 0.00 | 88 | 1020.6 |
| 20260830144847 | 84 | 356 | 2.0 | 2.0 | 0.00 | 0.00 | 0.00 | 88 | 1020.6 |
| 20260830144343 | 84 | 21 | 4.0 | 5.0 | 0.00 | 0.00 | 0.00 | 88 | 1020.6 |
| 20260830143838 | 85 | 42 | 1.0 | 2.0 | 0.00 | 0.00 | 0.00 | 88 | 1020.9 |
| 20260830143337 | 84 | 82 | 1.0 | 2.0 | 0.00 | 0.00 | 0.00 | 89 | 1020.9 |
| 20260830142832 | 84 | 75 | 3.0 | 5.0 | 0.00 | 0.00 | 0.00 | 89 | 1020.6 |
| 20260830142327 | 84 | 51 | 1.0 | 1.0 | 0.00 | 0.00 | 0.00 | 88 | 1020.6 |
| 20260830141822 | 84 | 68 | 3.0 | 5.0 | 0.00 | 0.00 | 0.00 | 89 | 1020.6 |
| 20260830141317 | 84 | 85 | 2.0 | 3.0 | 0.00 | 0.00 | 0.00 | 91 | 1020.6 |
| 20260830140812 | 83 | 66 | 2.0 | 2.0 | 0.00 | 0.00 | 0.00 | 90 | 1020.6 |
| 20260830140307 | 83 | 38 | 2.0 | 2.0 | 0.00 | 0.00 | 0.00 | 91 | 1020.6 |
| 20260830135801 | 83 | 39 | 3.0 | 3.0 | 0.00 | 0.00 | 0.00 | 93 | 1020.9 |
| 20260830135257 | 83 | 9 | 4.0 | 5.0 | 0.00 | 0.00 | 0.00 | 92 | 1020.6 |
| 20260830134753 | 82 | 52 | 4.0 | 5.0 | 0.00 | 0.00 | 0.00 | 93 | 1020.9 |
| 20260830134247 | 82 | 50 | 4.0 | 6.0 | 0.00 | 0.00 | 0.00 | 94 | 1020.9 |
| 20260830133743 | 80 | 359 | 2.0 | 2.0 | 0.00 | 0.00 | 0.00 | 98 | 1020.9 |
| 20260830133238 | 79 | 52 | 3.0 | 3.0 | 0.00 | 0.00 | 0.00 | 99 | 1020.9 |
| 20260830132734 | 78 | 55 | 2.0 | 2.0 | 0.00 | 0.00 | 0.00 | 99 | 1020.6 |
| 20260830132229 | 78 | 56 | 2.0 | 2.0 | 0.00 | 0.00 | 0.00 | 99 | 1020.9 |
| 20260830131728 | 78 | 355 | 2.0 | 3.0 | 0.00 | 0.00 | 0.00 | 99 | 1020.6 |
| 20260830131218 | 78 | 33 | 2.0 | 2.0 | 0.00 | 0.00 | 0.00 | 99 | 1020.6 |
| 20260830130713 | 78 | 65 | 2.0 | 2.0 | 0.00 | 0.00 | 0.00 | 99 | 1020.6 |
| 20260830130212 | 77 | 330 | 2.0 | 2.0 | 0.00 | 0.00 | 0.00 | 99 | 1020.6 |
| 20260830125712 | 77 | 328 | 1.0 | 2.0 | 0.00 | 0.00 | 0.00 | 99 | 1020.6 |
| 20260830125207 | 77 | 181 | 0.0 | 1.0 | 0.00 | 0.00 | 0.00 | 99 | 1020.6 |